[[{"header":{"parameterUnit":"m.s-1","parameterCategory":1,"la1":30.2991,"la2":30.254,"lo1":-89.0895,"lo2":-89.0444,"dy":0.0017,"dx":0.0017,"nx":28,"ny":28,"refTime":"2023-04-17T15:00:00:Z","depth":0,"parameterNumber":2,"parameterNumberName":"U-component_of_WINDS"},"data":[0,0,0,0,0,0,0,0,0,0,0,0,0,0,0,0,0,0,0,0,0,0,0,0,0,0,0,0,0,0,0,0,0,0,0,0,0,0,0,0,0,0,0,0,0,0,0,0,0,0,0,0,0,0,0,0,0,0,-3.7829,-3.7828,0,-3.7789,-3.7789,-3.7789,-3.7683,-3.768,-3.7678,-3.7676,-3.7639,-3.764,-3.7642,0,0,0,0,0,0,0,0,0,0,0,0,0,-3.7816,-3.7817,-3.7829,-3.7828,-3.7828,-3.7789,-3.7789,-3.7788,-3.7683,-3.768,-3.7677,-3.7675,-3.7639,-3.764,-3.7642,0,0,0,0,0,0,0,0,0,0,0,0,0,-3.7804,-3.7817,-3.7829,-3.777,-3.7765,-3.779,-3.7789,-3.7788,-3.7684,-3.768,-3.7677,-3.7674,-3.7638,-3.764,-3.7642,-3.7721,0,0,-3.7647,-3.7648,0,0,0,0,0,0,0,0,-3.7805,-3.7804,-3.7779,-3.7774,-3.7768,-3.7737,-3.7771,-3.7766,-3.7684,-3.7715,-3.7676,-3.7672,-3.7675,-3.7673,-3.7674,-3.7719,-3.7718,-3.7647,-3.7648,-3.7649,-3.765,0,0,0,0,0,0,0,-3.7806,-3.7806,-3.7813,-3.7779,-3.7772,-3.7747,-3.7742,-3.777,-3.7715,-3.7712,-3.7704,-3.77,-3.7671,-3.7672,-3.7672,-3.7717,-3.7647,-3.7649,-3.765,-3.7651,-3.7828,-3.7831,0,0,0,0,0,0,-3.7814,-3.7807,-3.7814,-3.7812,-3.7778,-3.775,-3.7744,-3.7751,-3.7714,-3.7705,-3.7703,-3.7696,-3.7671,-3.767,-3.767,-3.7762,-3.7649,-3.7651,-3.7652,-3.7824,-3.7829,-3.7832,0,0,0,0,0,0,-3.7815,-3.7816,-3.7816,-3.7807,-3.7805,-3.7754,-3.7763,-3.7752,-3.7753,-3.7708,-3.7698,-3.7714,-3.7668,-3.7668,-3.7709,-3.7759,-3.7651,-3.7653,-3.782,-3.7825,-3.7831,-3.7945,0,0,0,0,0,0,-3.7815,-3.7817,-3.7845,-3.7809,-3.7806,-3.7855,-3.7765,-3.7754,-3.7756,-3.7745,-3.7715,-3.7707,-3.7666,-3.7707,-3.7711,-3.7759,-3.7654,-3.7815,-3.7822,-3.7829,-3.7936,-3.7954,-3.7968,0,0,0,0,0,-3.7815,-3.788,-3.7847,-3.7849,-3.7841,-3.7858,-3.7857,-3.7806,-3.776,-3.7789,-3.776,-3.7708,-3.7753,-3.7713,-3.7716,-3.7765,-3.7812,-3.782,-3.7828,-3.7929,-3.795,-3.7968,0,0,0,0,0,0,-3.7924,-3.7874,-3.7837,-3.7892,-3.788,-3.784,-3.7875,-3.783,-3.7831,-3.7822,-3.776,-3.7755,-3.7805,-3.7789,-3.7745,-3.7841,-3.7774,-3.7783,-3.785,-3.7869,-3.7885,-3.7888,-3.7656,0,0,0,0,0,-3.7955,-3.7972,-3.7927,-3.798,-3.7975,-3.7927,-3.7932,-3.7894,-3.788,-3.7875,-3.7849,-3.7838,-3.7849,-3.7858,-3.7866,-3.7933,-3.7926,-3.7969,-3.7985,-3.7999,-3.8008,-3.8044,-3.8063,-3.786,-3.786,-3.7859,0,0,-3.8018,-3.7993,-3.8007,-3.8001,-3.7987,-3.8008,-3.7923,-3.7948,-3.7963,-3.7878,-3.7916,-3.7897,-3.7881,-3.7936,-3.7959,-3.7924,-3.8062,-3.8009,-3.802,-3.8022,-3.8054,-3.8073,-3.8091,-3.7865,-3.7864,-3.7863,0,0,-3.8144,-3.8126,-3.8168,-3.8156,-3.8136,-3.8103,-3.8114,-3.808,-3.8064,-3.8101,-3.8039,-3.8056,-3.8077,-3.8068,-3.8066,-3.819,-3.8143,-3.8195,-3.8278,-3.8314,-3.833,-3.8344,-3.839,-3.8407,-3.8204,-3.8204,-3.8204,0,-3.8226,-3.8252,-3.8196,-3.8225,-3.8225,-3.8149,-3.8193,-3.8184,-3.8168,-3.8171,-3.8132,-3.8157,-3.814,-3.8193,-3.8224,-3.8224,-3.8236,-3.8198,-3.8332,-3.8346,-3.8358,-3.8401,-3.8418,-3.8211,-3.821,-3.8209,-3.8209,0,-3.8354,-3.8374,-3.8411,-3.8397,-3.8401,-3.8437,-3.8388,-3.8399,-3.8362,-3.8334,-3.8373,-3.835,-3.8353,-3.8363,-3.8326,-3.8411,-3.839,-3.8343,-3.8274,-3.8385,-3.8424,-3.844,-3.822,-3.8218,-3.8216,-3.8214,0,0,-3.8548,-3.8503,-3.8518,-3.8511,-3.8483,-3.8498,-3.8532,-3.8533,-3.8545,-3.8537,-3.8565,-3.8584,-3.854,-3.8539,-3.8501,-3.8532,-3.8634,-3.8481,-3.848,-3.8511,-3.8728,-3.8764,-3.8784,-3.8602,-3.8605,-3.8607,-3.8729,0,-3.8668,-3.8721,-3.8672,-3.8736,-3.8755,-3.8683,-3.8713,-3.87,-3.8675,-3.8688,-3.8661,-3.8676,-3.8616,-3.8615,-3.8643,-3.8616,-3.8677,-3.8606,-3.8629,-3.863,-3.8636,-3.8804,-3.8843,-3.8959,-3.8744,-3.8747,-3.8748,0,-3.8814,-3.8813,-3.8878,-3.8848,-3.8853,-3.8881,-3.8879,-3.8892,-3.8877,-3.8856,-3.8855,-3.8809,-3.8841,-3.8774,-3.8819,-3.8772,-3.8778,-3.8767,-3.877,-3.8771,-3.8697,-3.8811,-3.8995,-3.9013,-3.8772,-3.877,-3.8768,0,-3.8951,-3.8965,-3.9006,-3.9002,-3.8967,-3.8988,-3.8975,-3.8956,-3.8961,-3.896,-3.8963,-3.8966,-3.8968,-3.8973,-3.893,-3.8884,-3.8981,-3.8909,-3.8966,-3.8968,-3.899,-3.899,-3.9179,-3.8993,-3.8993,-3.8992,-3.8992,0,-3.909,-3.9133,-3.9067,-3.9092,-3.9139,-3.9083,-3.9131,-3.9111,-3.9095,-3.9117,-3.9055,-3.9077,-3.9018,-3.9034,-3.9,-3.9043,-3.9045,-3.903,-3.9021,-3.9036,-3.9039,-3.904,-3.9032,-3.8997,-3.8996,-3.8995,-3.8994,0,-3.925,-3.9207,-3.9248,-3.9211,-3.9203,-3.924,-3.9209,-3.9232,-3.9203,-3.9231,-3.9235,-3.919,-3.9206,-3.9163,-3.9172,-3.915,-3.9213,-3.919,-3.9218,-3.9211,-3.9271,-3.9266,-3.9469,-3.9493,-3.9291,-3.9293,-3.9295,0,-3.9342,-3.9374,-3.9341,-3.935,-3.934,-3.9356,-3.9361,-3.9307,-3.9315,-3.9301,-3.9326,-3.9336,-3.9342,-3.9371,-3.934,-3.9348,-3.9325,-3.9396,-3.9326,-3.9341,-3.9328,-3.9327,-3.9331,-3.9411,-3.9413,-3.9415,-3.9417,0,-3.951,-3.9488,-3.9496,-3.9497,-3.9504,-3.9503,-3.9498,-3.9509,-3.9452,-3.9464,-3.9479,-3.9483,-3.9493,-3.9505,-3.9506,-3.9493,-3.9447,-3.9439,-3.9453,-3.9469,-3.9484,-3.9478,-3.9258,-3.9435,-3.9433,-3.9431,-3.9431,-3.943,-3.964,-3.9665,-3.9646,-3.9658,-3.9648,-3.9645,-3.9665,-3.9639,-3.965,-3.9653,-3.9621,-3.9643,-3.9629,-3.9625,-3.9617,-3.9635,-3.9603,-3.9623,-3.9628,-3.9634,-3.9644,-3.9481,-3.9635,-3.9634,-3.9634,-3.9633,-3.9633,0,-3.9806,-3.979,-3.9802,-3.9796,-3.9806,-3.9759,-3.9751,-3.9763,-3.9783,-3.9773,-3.978,-3.9798,-3.981,-3.978,-3.9788,-3.9808,-3.9787,-3.9812,-3.981,-3.9808,-3.9672,-3.966,-3.9829,-3.9829,-3.9828,-3.9828,-3.9828,-3.9828,-3.9894,-3.9934,-3.991,-3.9946,-3.993,-3.995,-3.995,-3.9947,-3.9939,-3.9962,-3.9971,-3.9951,-3.9934,-3.994,-3.9949,-3.994,-3.9946,-3.9979,-3.9964,-3.9837,-3.9818,-3.98,-3.9788,-3.9981,-3.9981,-4.0098,-4.0099,-4.01]},{"header":{"parameterUnit":"m.s-1","parameterCategory":1,"la1":30.2991,"la2":30.254,"lo1":-89.0895,"lo2":-89.0444,"dy":0.0017,"dx":0.0017,"nx":28,"ny":28,"refTime":"2023-04-17T15:00:00:Z","depth":0,"parameterNumber":3,"parameterNumberName":"V-component_of_WINDS"},"data":[0,0,0,0,0,0,0,0,0,0,0,0,0,0,0,0,0,0,0,0,0,0,0,0,0,0,0,0,0,0,0,0,0,0,0,0,0,0,0,0,0,0,0,0,0,0,0,0,0,0,0,0,0,0,0,0,0,0,0.823,0.8229,0,0.8141,0.814,0.8139,0.8104,0.8104,0.8104,0.8105,0.8013,0.801,0.8008,0,0,0,0,0,0,0,0,0,0,0,0,0,0.8366,0.8364,0.823,0.8229,0.8227,0.8142,0.814,0.8139,0.8104,0.8104,0.8104,0.8105,0.8014,0.8011,0.8007,0,0,0,0,0,0,0,0,0,0,0,0,0,0.8296,0.8363,0.823,0.82,0.8196,0.8142,0.814,0.8139,0.8104,0.8104,0.8105,0.8105,0.8015,0.8011,0.8007,0.7976,0,0,0.7995,0.7993,0,0,0,0,0,0,0,0,0.83,0.8291,0.8205,0.8201,0.8197,0.8134,0.8155,0.8084,0.8104,0.8139,0.8105,0.8105,0.8053,0.8046,0.8028,0.7972,0.7968,0.7995,0.7992,0.799,0.7989,0,0,0,0,0,0,0,0.8305,0.8294,0.8195,0.8204,0.8199,0.819,0.818,0.8141,0.8095,0.8136,0.8133,0.8123,0.8051,0.8032,0.8026,0.7967,0.7995,0.7991,0.7989,0.7987,0.7881,0.788,0,0,0,0,0,0,0.8315,0.8298,0.8197,0.8192,0.825,0.8187,0.8176,0.8154,0.8095,0.8087,0.8123,0.8122,0.8039,0.8031,0.8023,0.7983,0.799,0.7987,0.7985,0.7881,0.7881,0.788,0,0,0,0,0,0,0.8318,0.8306,0.8201,0.8244,0.823,0.8185,0.816,0.8152,0.8134,0.8086,0.8077,0.8113,0.8039,0.8028,0.7988,0.7979,0.7985,0.7981,0.7882,0.7881,0.788,0.7903,0,0,0,0,0,0,0.8322,0.8307,0.8295,0.8244,0.8228,0.8168,0.8159,0.815,0.8127,0.8125,0.8074,0.8066,0.8038,0.7994,0.7984,0.7974,0.7978,0.7882,0.7881,0.7881,0.7903,0.7904,0.7904,0,0,0,0,0,0.8327,0.8305,0.8295,0.8283,0.8212,0.8168,0.8159,0.8128,0.8127,0.8114,0.8083,0.8067,0.7982,0.7991,0.7979,0.7967,0.7883,0.7882,0.7881,0.7903,0.7903,0.7904,0,0,0,0,0,0,0.8355,0.8298,0.8286,0.8247,0.8213,0.8162,0.8145,0.8129,0.8094,0.8094,0.8057,0.8046,0.8009,0.7984,0.7994,0.7935,0.7931,0.7928,0.7952,0.7952,0.7953,0.7959,0.7975,0,0,0,0,0,0.8357,0.8326,0.8277,0.8247,0.8231,0.8191,0.8171,0.815,0.8113,0.8098,0.8064,0.8029,0.7994,0.7972,0.7937,0.79,0.7888,0.7886,0.7886,0.7887,0.7884,0.7863,0.7861,0.7877,0.7877,0.7877,0,0,0.836,0.8325,0.8307,0.8252,0.8223,0.8192,0.8179,0.8146,0.8123,0.8093,0.8053,0.8028,0.7985,0.7947,0.7928,0.7925,0.7877,0.7885,0.7886,0.7883,0.7862,0.786,0.7859,0.7876,0.7876,0.7876,0,0,0.835,0.832,0.8292,0.8264,0.822,0.8194,0.8188,0.814,0.8121,0.8081,0.8059,0.803,0.797,0.7941,0.7919,0.7898,0.7882,0.7888,0.789,0.787,0.7868,0.7867,0.786,0.7858,0.7886,0.7886,0.7886,0,0.8359,0.8311,0.828,0.8248,0.8225,0.8198,0.8169,0.8143,0.809,0.8075,0.8072,0.7998,0.7967,0.7921,0.7917,0.7899,0.789,0.7894,0.7871,0.787,0.7868,0.7861,0.7858,0.7887,0.7887,0.7887,0.7886,0,0.8325,0.8292,0.8275,0.8226,0.82,0.8171,0.8135,0.8112,0.8094,0.8069,0.8028,0.7991,0.7948,0.7936,0.7917,0.7888,0.7887,0.7878,0.7874,0.7868,0.7861,0.7858,0.7888,0.7888,0.7888,0.7887,0,0,0.8329,0.8264,0.8258,0.8236,0.8186,0.816,0.8129,0.8088,0.807,0.8035,0.8008,0.7959,0.7951,0.7925,0.7904,0.7886,0.7873,0.7879,0.7878,0.788,0.7838,0.7845,0.7842,0.7862,0.7861,0.7861,0.7841,0,0.8313,0.8257,0.8228,0.8184,0.8154,0.8128,0.8101,0.8068,0.8043,0.8013,0.7985,0.7951,0.7943,0.7927,0.7909,0.7878,0.7864,0.7879,0.7837,0.7835,0.7848,0.7838,0.7845,0.7829,0.7838,0.7838,0.7838,0,0.8286,0.8252,0.8205,0.816,0.8146,0.8123,0.8083,0.8055,0.8017,0.8,0.7972,0.7951,0.7917,0.7916,0.7869,0.788,0.7861,0.7844,0.7842,0.7837,0.7836,0.7833,0.7823,0.7821,0.7833,0.7833,0.7833,0,0.8294,0.8237,0.8201,0.8183,0.8129,0.8113,0.809,0.8052,0.803,0.7995,0.798,0.7942,0.7921,0.7891,0.786,0.7862,0.7817,0.7813,0.7802,0.7802,0.7793,0.7794,0.778,0.7781,0.7781,0.7781,0.7781,0,0.8278,0.8251,0.8205,0.8183,0.8152,0.8119,0.8089,0.8063,0.803,0.8003,0.7978,0.7953,0.7913,0.7884,0.7859,0.7824,0.7815,0.78,0.7794,0.7802,0.7804,0.7789,0.7789,0.778,0.778,0.7781,0.7781,0,0.8282,0.825,0.821,0.8163,0.8151,0.813,0.8089,0.8067,0.8041,0.8007,0.7997,0.7957,0.792,0.7886,0.7838,0.7821,0.7786,0.7778,0.7799,0.7796,0.7787,0.7788,0.7762,0.7757,0.7762,0.7762,0.7762,0,0.8275,0.8253,0.8204,0.8184,0.8162,0.813,0.8108,0.8074,0.8052,0.8007,0.799,0.7952,0.792,0.7863,0.7829,0.7791,0.7782,0.7776,0.7776,0.7786,0.7782,0.7784,0.7782,0.7776,0.7776,0.7776,0.7777,0,0.8264,0.825,0.8218,0.8181,0.8154,0.8123,0.8091,0.8077,0.8037,0.8013,0.7976,0.7951,0.7902,0.7864,0.7823,0.7799,0.7781,0.7777,0.7772,0.7781,0.7794,0.7787,0.7801,0.7777,0.7777,0.7777,0.7777,0.7777,0.8262,0.8242,0.8204,0.817,0.8143,0.8114,0.8091,0.8063,0.8031,0.7989,0.7971,0.7934,0.7896,0.784,0.7815,0.7785,0.7781,0.7775,0.7773,0.7772,0.7774,0.7799,0.7778,0.7778,0.7777,0.7777,0.7777,0,0.825,0.8225,0.8194,0.8151,0.8124,0.811,0.8075,0.8053,0.802,0.7987,0.7956,0.7914,0.7877,0.7841,0.7802,0.7785,0.7776,0.7776,0.7777,0.7772,0.7779,0.7787,0.7784,0.7784,0.7784,0.7784,0.7784,0.7784,0.8241,0.8207,0.8188,0.814,0.8114,0.8078,0.8059,0.8032,0.8005,0.7959,0.7929,0.7906,0.7871,0.783,0.7796,0.7786,0.7773,0.7776,0.7764,0.7771,0.7771,0.7771,0.7778,0.7773,0.7773,0.7758,0.7758,0.7758]}]]